Location: Gro�sch�nbrunn
(49.5760°N, 11.8868°E)
Time: 13:11:28
(UTC+00:00)

USA 186 - Pass Details

Date: 18 September 2020
Orbit: 261 x 425 km, 96.9° (Epoch: 12 October)

Event Time Altitude Azimuth Distance (km) Brightness Sun altitude
Exits shadow 18:49:23 13° 175° (S) 1,276 3.9 -15.2°
Maximum altitude 18:52:04 69° 259° (W) 443 2.0 -15.6°
Drops below altitude 10° 18:55:19 10° 343° (NNW) 1,514 5.1 -16.1°
Sets 18:57:23 0° 346° (NNW) 2,398 6.1 -16.4°
